Overview Statistics Trail Chart Weather Telemetry Raw packets
 

This is the latest recevied weather packets stored in our database for station/object N6GPM. If no packets are shown the sender has not sent any weather packets the latest 10 day(s).

<< 109 110 111 112 113 114 >>
Time Temp. Humidity Pressure Rain* Wind** Luminosity Snow
1787850313 30° C 42% 1018.2 hPa 0 mm - 773 W/m² -
1787850008 30° C 42% 1018.2 hPa 0 mm - 672 W/m² -
1787849703 30° C 42% 1018.5 hPa 0 mm - 642 W/m² -
1787849398 30° C 42% 1018.3 hPa 0 mm - 610 W/m² -
1787849096 30° C 42% 1018.4 hPa 0 mm - 438 W/m² -
1787848791 29.44° C 43% 1018.3 hPa 0 mm - 559 W/m² -
1787848490 29.44° C 45% 1018.4 hPa 0 mm - 810 W/m² -
1787848185 28.89° C 45% 1018.5 hPa 0 mm - 619 W/m² -
1787847885 28.89° C 45% 1018.4 hPa 0 mm - 505 W/m² -
1787847580 27.78° C 48% 1018.5 hPa 0 mm - 615 W/m² -
1787847276 27.78° C 49% 1018.2 hPa 0 mm - 249 W/m² -
1787846972 27.78° C 49% 1018.6 hPa 0 mm - 195 W/m² -
1787846673 27.78° C 49% 1018.4 hPa 0 mm - 205 W/m² -
1787846366 27.78° C 49% 1018.5 hPa 0 mm - 214 W/m² -
1787846062 27.78° C 48% 1018.3 hPa 0 mm - 219 W/m² -
1787845758 27.78° C 48% 1018.3 hPa 0 mm - 239 W/m² -
1787845453 27.78° C 48% 1018.2 hPa 0 mm - 270 W/m² -
1787845150 27.78° C 48% 1018.5 hPa 0 mm - 261 W/m² -
1787844845 27.22° C 49% 1018.2 hPa 0 mm - 336 W/m² -
1787844543 27.22° C 50% 1018.4 hPa 0 mm - 215 W/m² -
1787844239 27.22° C 50% 1018.1 hPa 0 mm - 175 W/m² -
1787843938 27.22° C 50% 1018.3 hPa 0 mm - 144 W/m² -
1787843633 27.22° C 50% 1018 hPa 0 mm - 123 W/m² -
1787843330 27.22° C 50% 1017.9 hPa 0 mm - 157 W/m² -
1787843025 27.22° C 50% 1017.9 hPa 0 mm - 171 W/m² -

* Rain latest hour (hover to see other rain measurements)
** Current wind speed in m/s (hover to see current wind gust speed)